TimeCDT,TemperatureF,Dew PointF,Humidity,Sea Level PressureIn,VisibilityMPH,Wind Direction,Wind SpeedMPH,Gust SpeedMPH,PrecipitationIn,Events,Conditions,WindDirDegrees,DateUTC
12:16 AM,37.4,26.6,65,29.84,10.0,NW,36.8,51.8,N/A,,Mostly Cloudy,320,2013-03-10 06:16:00
12:53 AM,37.9,26.1,62,29.81,10.0,NNW,36.8,51.8,N/A,,Mostly Cloudy,330,2013-03-10 06:53:00
1:35 AM,37.4,24.8,60,29.84,10.0,NNW,39.1,56.4,N/A,,Mostly Cloudy,330,2013-03-10 07:35:00
1:53 AM,37.0,25.0,62,29.82,10.0,NNW,35.7,55.2,N/A,,Scattered Clouds,340,2013-03-10 07:53:00
3:14 AM,37.4,24.8,60,29.88,10.0,NNW,41.4,52.9,N/A,,Mostly Cloudy,340,2013-03-10 08:14:00
3:53 AM,37.0,26.1,65,29.84,10.0,NNW,33.4,48.3,N/A,,Mostly Cloudy,340,2013-03-10 08:53:00
4:53 AM,35.1,24.1,64,29.86,10.0,North,23.0,46.0,0.00,,Mostly Cloudy,350,2013-03-10 09:53:00
5:00 AM,35.6,24.8,65,29.92,10.0,North,29.9,40.3,N/A,,Scattered Clouds,350,2013-03-10 10:00:00
5:53 AM,34.0,19.9,56,29.90,10.0,NNW,32.2,43.7,N/A,,Mostly Cloudy,340,2013-03-10 10:53:00
6:53 AM,33.8,17.6,52,29.98,10.0,NNW,23.0,39.1,N/A,,Clear,340,2013-03-10 11:53:00
7:53 AM,32.0,17.1,54,30.01,10.0,NNW,23.0,34.5,N/A,,Clear,340,2013-03-10 12:53:00
8:53 AM,33.1,17.1,52,30.04,10.0,NNW,23.0,34.5,N/A,,Clear,330,2013-03-10 13:53:00
9:53 AM,35.1,15.1,44,30.09,10.0,NNW,25.3,38.0,N/A,,Clear,340,2013-03-10 14:53:00
10:53 AM,37.9,14.0,38,30.09,10.0,NNW,29.9,39.1,N/A,,Clear,340,2013-03-10 15:53:00
11:53 AM,39.9,12.9,33,30.09,10.0,NNW,28.8,41.4,N/A,,Scattered Clouds,340,2013-03-10 16:53:00
12:53 PM,39.9,14.0,35,30.09,10.0,NNW,26.5,40.3,N/A,,Overcast,340,2013-03-10 17:53:00
1:53 PM,42.1,14.0,32,30.07,10.0,NNW,27.6,36.8,N/A,,Overcast,330,2013-03-10 18:53:00
2:53 PM,44.1,14.0,30,30.04,10.0,North,25.3,38.0,N/A,,Mostly Cloudy,350,2013-03-10 19:53:00
3:53 PM,44.1,15.1,31,30.03,10.0,NNW,26.5,36.8,N/A,,Partly Cloudy,330,2013-03-10 20:53:00
4:53 PM,44.1,12.9,28,30.03,10.0,NNW,23.0,42.6,N/A,,Clear,330,2013-03-10 21:53:00
5:53 PM,45.0,12.0,26,30.03,10.0,NW,21.9,33.4,N/A,,Clear,320,2013-03-10 22:53:00
6:53 PM,42.1,9.0,26,30.06,10.0,NNW,20.7,28.8,N/A,,Clear,340,2013-03-10 23:53:00
7:53 PM,39.0,10.9,32,30.09,10.0,NW,17.3,26.5,N/A,,Clear,320,2013-03-11 00:53:00
8:53 PM,35.6,14.0,41,30.09,10.0,North,10.4,-,N/A,,Clear,350,2013-03-11 01:53:00
9:53 PM,34.0,15.1,46,30.14,10.0,NW,10.4,-,N/A,,Clear,320,2013-03-11 02:53:00
10:53 PM,33.1,15.1,48,30.13,10.0,NNW,10.4,-,N/A,,Clear,330,2013-03-11 03:53:00
11:53 PM,32.0,16.0,52,30.14,10.0,NW,10.4,-,N/A,,Clear,310,2013-03-11 04:53:00
12:53 AM,30.0,15.1,54,30.14,10.0,WNW,9.2,-,N/A,,Clear,300,2013-03-11 05:53:00